This is the latest recevied weather packets stored in our database for station/object KC1TWD. If no packets are shown the sender has not sent any weather packets the latest 10 day(s).
| Time | Temp. | Humidity | Pressure | Rain* | Wind** | Luminosity | Snow |
|---|---|---|---|---|---|---|---|
| 1777958355 | 12.22° C | 66% | 1009 hPa | 0 mm | - | - | - |
| 1777958052 | 12.78° C | 65% | 1008.8 hPa | 0 mm | - | - | - |
| 1777957750 | 12.22° C | 66% | 1009.1 hPa | 0 mm | - | - | - |
| 1777957448 | 12.78° C | 66% | 1008.8 hPa | 0 mm | - | - | - |
| 1777957145 | 12.78° C | 65% | 1009.3 hPa | 0 mm | - | - | - |
| 1777956842 | 12.78° C | 64% | 1008.8 hPa | 0 mm | - | - | - |
| 1777956538 | 12.78° C | 66% | 1009.1 hPa | 0 mm | - | - | - |
| 1777956235 | 12.78° C | 65% | 1009.1 hPa | 0 mm | - | - | - |
| 1777955932 | 12.78° C | 64% | 1008.8 hPa | 0 mm | - | - | - |
| 1777955628 | 12.78° C | 63% | 1008.8 hPa | 0 mm | - | - | - |
| 1777955324 | 12.78° C | 64% | 1008.8 hPa | 0 mm | - | - | - |
| 1777955022 | 12.78° C | 64% | 1008.7 hPa | 0 mm | - | - | - |
| 1777954719 | 13.33° C | 63% | 1009 hPa | 0 mm | - | - | - |
| 1777954416 | 13.33° C | 62% | 1009 hPa | 0 mm | - | - | - |
| 1777954113 | 13.33° C | 62% | 1008.6 hPa | 0 mm | - | - | - |
| 1777953811 | 13.33° C | 62% | 1008.7 hPa | 0 mm | - | - | - |
| 1777953507 | 13.33° C | 61% | 1008.6 hPa | 0 mm | - | - | - |
| 1777953203 | 13.89° C | 61% | 1008.4 hPa | 0 mm | - | - | - |
| 1777952900 | 13.89° C | 61% | 1008.4 hPa | 0 mm | - | - | - |
| 1777952597 | 13.89° C | 60% | 1008.5 hPa | 0 mm | - | - | - |
| 1777952294 | 13.89° C | 61% | 1008.4 hPa | 0 mm | - | - | - |
| 1777951991 | 13.89° C | 60% | 1008.4 hPa | 0 mm | - | - | - |
| 1777951689 | 14.44° C | 59% | 1008.3 hPa | 0 mm | - | - | - |
| 1777951385 | 14.44° C | 59% | 1008.5 hPa | 0 mm | - | - | - |
| 1777951082 | 14.44° C | 59% | 1008.4 hPa | 0 mm | - | - | - |
* Rain latest hour (hover to see other rain measurements)
** Current wind speed in m/s (hover to see current wind gust speed)